FW3668 Weather Reports


time (UTC)temp
C
wind
direction
speed
KPH
gust
KPH
rain 1hr
cm
rain 24hr
cm
rain mn
cm
humidity
%
barometer
mb
20260508173010 12 70 8.0 19.3 0.00 2.84 0.00 65 1001.5
20260508171507 12 36 6.4 19.3 0.00 2.84 0.00 66 1001.6
20260508170003 12 34 11.3 22.5 0.00 2.84 0.00 66 1001.8
20260508164606 12 36 12.9 25.7 0.00 2.84 0.00 67 1001.9
20260508163117 12 50 9.7 20.9 0.00 2.84 0.00 68 1001.8
20260508161558 12 36 4.8 17.7 0.00 2.84 0.00 71 1001.7
20260508160054 11 33 8.0 14.5 0.00 2.84 0.00 72 1002.0
20260508154555 11 51 4.8 16.1 0.00 2.84 0.00 73 1002.0
20260508153051 11 26 4.8 14.5 0.00 2.84 0.00 74 1002.2
20260508151547 11 65 8.0 16.1 0.00 2.84 0.00 77 1002.0
20260508150044 11 56 8.0 16.1 0.00 2.84 0.00 80 1002.0
20260508144541 11 37 8.0 19.3 0.00 2.84 0.00 81 1002.2
20260508143038 10 59 8.0 19.3 0.00 2.84 0.00 83 1002.3
20260508141537 10 9 8.0 17.7 0.00 2.84 0.00 86 1002.4
20260508140033 10 66 8.0 19.3 0.00 2.84 0.00 89 1002.4
20260508134536 9 5 6.4 14.5 0.00 2.84 0.00 90 1002.8
20260508133030 9 55 3.2 16.1 0.00 2.84 0.00 92 1002.9
20260508131529 9 48 8.0 14.5 0.00 2.84 0.00 93 1002.9
20260508130027 9 355 6.4 12.9 0.00 2.84 0.00 95 1002.7
20260508124524 8 5 4.8 9.7 0.00 2.84 0.00 96 1002.5
20260508123029 7 44 3.2 14.5 0.00 2.84 0.00 97 1002.7
20260508121521 7 28 3.2 16.1 0.00 2.84 0.00 98 1002.4
20260508120019 7 52 4.8 11.3 0.00 2.84 0.00 99 1002.8
20260508114519 6 11 4.8 8.0 0.00 2.97 0.00 100 1003.1
20260508113019 6 28 4.8 11.3 0.00 2.97 0.00 100 1003.2
20260508111621 6 53 4.8 12.9 0.00 2.97 0.00 100 1002.9
20260508110016 6 56 0.0 8.0 0.00 2.97 0.00 100 1003.0
20260508104515 5 63 1.6 6.4 0.00 3.30 0.00 100 1003.0
20260508103014 5 63 1.6 6.4 0.00 3.30 0.00 100 1003.3
20260508101524 5 36 1.6 8.0 0.00 3.30 0.00 100 1003.2
20260508100012 5 53 0.0 8.0 0.00 3.30 0.00 100 1003.1
20260508094510 5 45 3.2 9.7 0.00 3.43 0.00 100 1002.8
20260508093032 5 40 4.8 16.1 0.00 3.43 0.00 100 1002.8
20260508091508 5 53 3.2 14.5 0.00 3.43 0.00 100 1002.6
20260508090013 6 48 4.8 9.7 0.00 3.43 0.00 99 1002.4
20260508084503 6 30 1.6 8.0 0.00 3.48 0.00 100 1002.5
20260508083001 6 42 4.8 11.3 0.00 3.48 0.00 100 1002.4
20260508081616 6 70 3.2 9.7 0.00 3.48 0.00 100 1002.0
20260508080101 6 84 4.8 9.7 0.00 3.48 0.00 100 1002.3
20260508074556 7 65 4.8 9.7 0.00 3.56 0.00 99 1002.0
20260508073056 7 60 4.8 11.3 0.00 3.56 0.00 100 1002.0
20260508071551 7 104 0.0 4.8 0.00 3.56 0.00 100 1002.0
20260508070050 7 213 0.0 0.0 0.00 3.56 0.00 100 1001.9
20260508064549 7 213 0.0 0.0 0.00 3.56 0.00 100 1001.9
20260508063053 7 213 0.0 0.0 0.00 3.56 0.00 100 1001.9
20260508061548 7 213 0.0 0.0 0.00 3.56 0.00 100 1002.0
20260508060047 7 213 0.0 0.0 0.00 3.56 0.00 99 1002.0
20260508054605 7 213 0.0 0.0 0.00 3.56 0.00 100 1001.9
20260508053047 7 213 0.0 0.0 0.00 3.56 0.00 100 1002.1
20260508051546 7 213 0.0 0.0 0.00 3.56 0.00 100 1001.7
20260508050047 7 213 0.0 0.0 0.00 3.56 0.00 100 1001.8
20260508044555 7 213 0.0 0.0 0.00 3.56 0.00 99 1001.7
20260508043043 7 213 0.0 0.0 0.00 3.56 0.00 100 1001.8
20260508041550 8 213 0.0 0.0 0.00 3.56 0.00 100 1002.0
20260508040045 8 213 0.0 0.0 0.00 3.56 0.00 100 1002.1
20260508034540 7 213 0.0 0.0 0.00 3.56 0.00 100 1002.2
20260508033038 7 213 0.0 0.0 0.00 3.56 0.00 100 1002.2
20260508031536 7 213 0.0 0.0 0.00 3.56 0.00 100 1002.4
20260508030038 7 213 1.6 8.0 0.00 3.56 0.00 99 1002.7
20260508024530 7 272 1.6 11.3 0.00 3.56 3.56 99 1002.8
20260508023038 7 259 3.2 8.0 0.00 3.56 3.56 99 1002.6
20260508021532 7 238 3.2 14.5 0.00 3.56 3.56 99 1002.3
20260508020023 8 244 1.6 8.0 0.00 3.56 3.56 99 1002.3
20260508014522 8 234 0.0 4.8 0.00 3.56 3.56 99 1002.3
20260508013023 8 234 1.6 4.8 0.00 3.56 3.56 99 1002.5
20260508011521 8 234 0.0 0.0 0.00 3.56 3.56 99 1002.1
20260508010035 8 234 0.0 4.8 0.00 3.56 3.56 99 1002.5
20260508004523 8 228 1.6 6.4 0.00 3.56 3.56 98 1002.7
20260508003020 8 228 0.0 1.6 0.00 3.56 3.56 98 1002.6
20260508001526 8 228 0.0 4.8 0.00 3.56 3.56 98 1002.7
20260508000018 8 244 3.2 12.9 0.00 3.56 3.56 98 1002.6
20260507234611 9 241 0.0 4.8 0.00 3.56 3.56 98 1002.8
20260507233010 10 241 1.6 6.4 0.00 3.56 3.56 97 1002.9
20260507231510 10 231 1.6 11.3 0.00 3.56 3.56 98 1002.7
20260507230008 11 207 4.8 8.0 0.00 3.56 3.56 98 1002.9
20260507224510 11 234 1.6 6.4 0.00 3.56 3.56 98 1002.8
20260507223008 11 252 3.2 16.1 0.00 3.56 3.56 98 1002.9
20260507221507 10 238 1.6 8.0 0.00 3.56 3.56 97 1002.9
20260507220006 11 225 3.2 11.3 0.03 3.56 3.56 97 1003.3
20260507214505 11 219 3.2 11.3 0.03 3.56 3.56 97 1003.2
20260507213014 10 290 3.2 12.9 0.08 3.56 3.56 97 1003.2
20260507211504 10 265 9.7 22.5 0.20 3.56 3.56 97 1002.9
20260507210007 10 145 12.9 25.7 0.36 3.53 3.53 97 1001.8
20260507204611 10 135 14.5 27.4 0.58 3.53 3.53 97 1002.5
20260507203102 10 126 8.0 25.7 0.86 3.48 3.48 96 1003.4
20260507201555 10 137 11.3 25.7 1.17 3.35 3.35 97 1003.7
20260507200104 10 200 17.7 30.6 1.37 3.20 3.20 96 1004.0
20260507194549 10 131 14.5 29.0 1.40 2.97 2.97 97 1004.4
20260507193108 10 207 12.9 27.4 1.32 2.62 2.62 98 1005.3
20260507191554 10 218 9.7 19.3 1.32 2.18 2.18 97 1005.8
20260507190043 10 225 4.8 22.5 1.09 1.83 1.83 96 1005.5
20260507184541 11 271 8.0 24.1 0.86 1.55 1.55 97 1005.6
20260507183049 12 211 11.3 29.0 0.61 1.30 1.30 96 1005.8
20260507181539 12 193 17.7 32.2 0.15 0.84 0.84 95 1005.8
20260507180039 12 175 14.5 40.2 0.05 0.71 0.71 94 1004.9
20260507174538 13 136 17.7 35.4 0.00 0.71 0.71 92 1004.9